Barksdale AFB, LA

12:36 AM CDT on May 27, 2017 (GMT -0500)
Barksdale Air Force Base

Weather History for KBAD - November, 2013

Change the Weather History Date:

Tuesday, November 26, 2013

  Actual Average Record
Temperature  
Mean Temperature 38 °F -  
Max Temperature 41 °F 61 °F 78 °F (2001)
Min Temperature 35 °F 42 °F 31 °F (2010)
Degree Days  
Heating Degree Days 27    
Moisture  
Dew Point 37 °F    
Average Humidity 97    
Maximum Humidity 100    
Minimum Humidity 87    
Precipitation  
Precipitation 0.27 in - - ()
Sea Level Pressure  
Sea Level Pressure 30.10 in    
Wind  
Wind Speed 11 mph (North)    
Max Wind Speed 18 mph    
Max Gust Speed 20 mph    
Visibility 5 miles    
Events Rain , Snow    
Averages and records for this station are not official NWS values.
T = Trace of Precipitation, MM = Missing Value Source: NWS Daily Summary

Daily Weather History Graph

Daily Weather History Graph

Search for Another Location

Airport or City:

Trip Planner

Search our weather history database for the weather conditions in past years. The results will help you decide how hot, cold, wet, or windy it might be!

Date:

Astronomy

Nov. 26, 2013 Rise Set
Actual Time 6:54 AM CST 5:09 PM CST
Civil Twilight 6:27 AM CST 5:36 PM CST
Nautical Twilight 5:57 AM CST 6:06 PM CST
Astronomical Twilight 5:27 AM CST 6:35 PM CST
Moon 12:20 AM CST (11/26) 12:56 PM CST (11/26)
Length of Visible Light 11h 08m
Length of Day
10h 15m
Last Quarter, 41% of the Moon is Illuminated
Nov 26
Last Quarter
Dec 2
New
Dec 9
First Quarter
Dec 17
Full
Dec 25
Last Quarter

Hourly Weather History & Observations

Time (CST) Temp. Windchill Dew Point Humidity Pressure Visibility Wind Dir Wind Speed Gust Speed Precip Events Conditions
12:31 AM 35.6 °F 28.0 °F 35.6 °F 100% 30.07 in 3.0 mi North 10.4 mph - N/A   Light Drizzle
12:58 AM 35.6 °F 28.0 °F 35.4 °F 99% 30.06 in 3.0 mi North 10.4 mph - 0.00 in   Light Drizzle
1:29 AM 35.6 °F 28.0 °F 35.6 °F 100% 30.06 in 5.0 mi North 10.4 mph - N/A   Light Drizzle
1:58 AM 36.0 °F 25.6 °F 35.8 °F 99% 30.04 in 3.0 mi North 18.4 mph - 0.00 in   Light Drizzle
2:23 AM 35.6 °F 25.9 °F 35.6 °F 100% 30.05 in 3.0 mi North 16.1 mph - N/A   Light Drizzle
2:34 AM 35.6 °F 25.9 °F 35.6 °F 100% 30.06 in 3.0 mi NNW 16.1 mph - N/A   Light Drizzle
2:58 AM 35.8 °F 27.3 °F 35.6 °F 99% 30.04 in 2.0 mi North 12.7 mph - 0.00 in   Light Drizzle
3:10 AM 35.6 °F 28.0 °F 35.6 °F 100% 30.06 in 2.0 mi NNW 10.4 mph 19.6 mph N/A   Light Drizzle
3:23 AM 35.6 °F 27.1 °F 35.6 °F 100% 30.06 in 2.0 mi North 12.7 mph - N/A   Light Drizzle
3:33 AM 35.6 °F 27.1 °F 35.6 °F 100% 30.05 in 2.0 mi North 12.7 mph - N/A   Light Drizzle
3:58 AM 36.1 °F 28.2 °F 35.8 °F 99% 30.06 in 2.0 mi North 11.5 mph - 0.00 in   Light Drizzle
4:58 AM 36.5 °F 28.7 °F 36.3 °F 99% 30.09 in 2.0 mi NNW 11.5 mph - N/A   Light Drizzle
5:11 AM 37.4 °F 29.8 °F 35.6 °F 93% 30.08 in 2.0 mi North 11.5 mph - N/A   Light Drizzle
5:26 AM 37.4 °F 30.3 °F 35.6 °F 93% 30.07 in 2.0 mi North 10.4 mph - N/A   Light Drizzle
5:28 AM 37.4 °F 30.3 °F 35.6 °F 93% 30.07 in 2.0 mi North 10.4 mph - N/A   Light Drizzle
5:57 AM 37.4 °F 29.3 °F 35.6 °F 93% 30.12 in 3.0 mi NNW 12.7 mph - 0.01 in   Light Drizzle
6:58 AM 36.5 °F 27.8 °F 36.3 °F 99% 30.09 in 5.0 mi NNW 13.8 mph - 0.00 in   Overcast
7:58 AM 36.9 °F 30.1 °F 36.3 °F 98% 30.09 in 9.0 mi North 9.2 mph - 0.00 in Rain Light Rain
8:27 AM 37.4 °F 29.3 °F 37.4 °F 100% 30.09 in 2.0 mi North 12.7 mph - N/A Rain Light Rain
8:49 AM 37.4 °F 30.3 °F 37.4 °F 100% 30.08 in 4.0 mi North 10.4 mph - N/A Rain Light Rain
8:58 AM 37.4 °F 29.8 °F 37.0 °F 99% 30.09 in 5.0 mi North 11.5 mph - 0.02 in Rain Light Rain
9:08 AM 37.4 °F 30.3 °F 37.4 °F 100% 30.09 in 9.0 mi North 10.4 mph - N/A   Light Drizzle
9:47 AM 37.4 °F 30.8 °F 37.4 °F 100% 30.10 in 1.8 mi North 9.2 mph - N/A Rain Light Rain
9:58 AM 37.9 °F 30.9 °F 37.0 °F 97% 30.12 in 1.8 mi North 10.4 mph - 0.01 in Rain Light Rain
10:05 AM 37.4 °F 30.8 °F 37.4 °F 100% 30.10 in 1.8 mi North 9.2 mph - N/A Rain , Snow Light Rain
10:17 AM 37.4 °F 30.8 °F 37.4 °F 100% 30.09 in 2.5 mi NNE 9.2 mph - N/A Rain Light Rain
10:58 AM 38.1 °F 30.2 °F 37.8 °F 99% 30.12 in 2.0 mi NNW 12.7 mph - 0.01 in   Light Drizzle
11:33 AM 39.2 °F 31.6 °F 37.4 °F 93% 30.07 in 3.0 mi North 12.7 mph - N/A Rain Light Rain
11:58 AM 38.8 °F 31.2 °F 37.8 °F 96% 30.07 in 5.0 mi North 12.7 mph - 0.04 in Rain Light Rain
12:58 PM 39.0 °F 31.4 °F 37.9 °F 96% 30.06 in 10.0 mi North 12.7 mph - 0.03 in Rain Light Rain
1:58 PM 39.2 °F 31.6 °F 38.1 °F 96% 30.06 in 5.0 mi North 12.7 mph - 0.02 in Rain Light Rain
2:58 PM 40.1 °F 33.2 °F 39.7 °F 99% 30.06 in 5.0 mi NNW 11.5 mph - 0.05 in Rain Light Rain
3:58 PM 40.8 °F 33.7 °F 40.1 °F 97% 30.08 in 5.0 mi NNW 12.7 mph - 0.06 in Rain Light Rain
4:13 PM 41.0 °F 34.3 °F 39.2 °F 93% 30.07 in 8.0 mi NNW 11.5 mph - N/A Rain Light Rain
4:58 PM 41.0 °F 34.7 °F 39.6 °F 95% 30.09 in 10.0 mi NNW 10.4 mph - 0.02 in   Overcast
5:25 PM 41.0 °F 34.7 °F 39.2 °F 93% 30.10 in 10.0 mi NNW 10.4 mph - N/A   Mostly Cloudy
5:58 PM 40.8 °F 36.2 °F 39.6 °F 95% 30.12 in 10.0 mi NNW 6.9 mph - N/A   Scattered Clouds
6:58 PM 39.0 °F 35.7 °F 38.7 °F 99% 30.15 in 5.0 mi WNW 4.6 mph - N/A   Scattered Clouds
7:08 PM 39.2 °F - 39.2 °F 100% 30.14 in 8.0 mi NNW 2.3 mph - N/A   Partly Cloudy
7:28 PM 39.2 °F - 39.2 °F 100% 30.15 in 7.0 mi NW 2.3 mph - N/A   Clear
7:48 PM 37.4 °F - 37.4 °F 100% 30.15 in 4.0 mi Calm Calm - N/A   Clear
7:58 PM 37.9 °F - 37.8 °F 99% 30.17 in 5.0 mi Calm Calm - N/A   Clear
8:58 PM 36.1 °F 33.5 °F 36.0 °F 99% 30.19 in 6.0 mi NNW 3.5 mph - N/A   Clear
9:58 PM 35.4 °F 30.5 °F 34.3 °F 96% 30.22 in 10.0 mi NNW 5.8 mph - N/A   Clear
10:58 PM 36.3 °F 29.5 °F 33.1 °F 88% 30.24 in 10.0 mi North 9.2 mph - N/A   Clear
11:58 PM 36.0 °F 29.0 °F 32.5 °F 87% 30.25 in 10.0 mi North 9.2 mph - N/A   Clear